DW0112 Weather Reports


time (UTC)temp
C
wind
direction
speed
KPH
gust
KPH
rain 1hr
cm
rain 24hr
cm
rain mn
cm
humidity
%
barometer
mb
20260510011205 16 297 3.2 4.8 0.00 0.00 0.00 67 1031.2
20260510005705 16 265 1.6 4.8 0.00 0.00 0.00 68 1031.2
20260510002705 16 244 1.6 3.2 0.00 0.00 0.00 70 1031.2
20260510001705 16 221 4.8 9.7 0.00 0.00 0.00 71 1031.2
20260510000207 15 284 3.2 4.8 0.00 0.00 0.00 73 1031.2
20260509235206 15 254 4.8 8.0 0.00 0.00 0.00 78 1031.3
20260509234205 15 173 1.6 4.8 0.00 0.00 0.00 82 1031.1
20260509233705 14 208 1.6 4.8 0.00 0.00 0.00 83 1031.1
20260509232204 14 178 0.0 3.2 0.00 0.00 0.00 86 1031.1
20260509231205 13 181 1.6 4.8 0.00 0.00 0.00 87 1031.0
20260509230704 13 184 1.6 4.8 0.00 0.00 0.00 88 1031.2
20260509225704 13 182 0.0 3.2 0.00 0.00 0.00 88 1031.1
20260509225204 13 181 1.6 3.2 0.00 0.00 0.00 89 1031.0
20260509223205 13 180 0.0 1.6 0.00 0.00 0.00 90 1030.9
20260509222205 13 180 1.6 3.2 0.00 0.00 0.00 90 1030.7
20260509221206 12 210 0.0 1.6 0.00 0.00 0.00 90 1030.6
20260509220705 12 210 0.0 0.0 0.00 0.00 0.00 89 1030.6
20260509214704 12 212 0.0 1.6 0.00 0.00 0.00 90 1030.3
20260509213205 12 225 1.6 3.2 0.00 0.00 0.00 90 1030.0
20260509212204 12 225 0.0 3.2 0.00 0.00 0.00 89 1029.9
20260509211705 12 225 0.0 1.6 0.00 0.00 0.00 89 1029.8
20260509210704 12 223 0.0 3.2 0.00 0.00 0.00 89 1029.8
20260509205704 12 216 0.0 1.6 0.00 0.03 0.00 89 1029.7
20260509204705 12 216 1.6 4.8 0.00 0.03 0.00 89 1029.6
20260509203705 12 194 0.0 0.0 0.00 0.03 0.00 89 1029.5
20260509203204 12 194 0.0 1.6 0.00 0.03 0.00 89 1029.5
20260509202204 12 194 0.0 1.6 0.00 0.03 0.00 89 1029.4
20260509201705 12 194 0.0 1.6 0.00 0.03 0.00 89 1029.4
20260509201204 12 194 0.0 1.6 0.00 0.03 0.00 89 1029.3
20260509200204 12 194 0.0 1.6 0.00 0.03 0.00 89 1029.2
20260509195205 12 194 0.0 0.0 0.00 0.03 0.00 89 1029.2
20260509193705 12 194 0.0 0.0 0.00 0.03 0.00 89 1029.1
20260509193204 12 194 0.0 0.0 0.00 0.03 0.00 89 1029.0
20260509192705 12 194 0.0 0.0 0.00 0.03 0.00 89 1029.0
20260509191704 12 194 0.0 0.0 0.00 0.03 0.00 89 1028.9
20260509190205 12 194 0.0 0.0 0.00 0.03 0.00 88 1028.7
20260509184704 12 194 0.0 0.0 0.00 0.03 0.00 89 1028.6
20260509183205 13 194 0.0 0.0 0.00 0.03 0.00 89 1028.4
20260509181205 13 194 0.0 0.0 0.00 0.03 0.00 89 1028.3
20260509180705 13 194 0.0 0.0 0.00 0.03 0.00 89 1028.2
20260509180206 12 194 0.0 0.0 0.00 0.08 0.00 89 1028.2
20260509175204 13 194 1.6 4.8 0.00 0.15 0.00 89 1028.2
20260509174204 13 236 0.0 0.0 0.00 0.20 0.00 90 1028.2
20260509173705 13 236 0.0 0.0 0.00 0.20 0.00 90 1028.2
20260509173205 13 236 1.6 3.2 0.00 0.20 0.00 90 1028.2
20260509172204 13 236 0.0 3.2 0.00 0.20 0.00 90 1028.2
20260509170705 13 236 0.0 0.0 0.00 0.23 0.00 90 1028.3
20260509170204 13 236 0.0 0.0 0.00 0.23 0.00 90 1028.3
20260509163205 12 236 1.6 4.8 0.00 0.28 0.00 90 1028.4
20260509162204 12 236 1.6 4.8 0.00 0.28 0.00 90 1028.4
20260509161704 12 194 1.6 4.8 0.00 0.28 0.00 90 1028.4
20260509160204 12 103 1.6 3.2 0.00 0.28 0.00 90 1028.5
20260509155205 13 200 0.0 1.6 0.00 0.28 0.00 90 1028.5
20260509153703 13 200 0.0 0.0 0.00 0.28 0.00 90 1028.5
20260509151705 13 200 0.0 1.6 0.00 0.28 0.00 90 1028.5
20260509145704 13 204 1.6 3.2 0.00 0.28 0.00 90 1028.6
20260509145206 13 204 1.6 4.8 0.00 0.28 0.00 90 1028.6
20260509143704 13 224 1.6 4.8 0.00 0.28 0.00 90 1028.5
20260509143204 13 262 0.0 3.2 0.00 0.28 0.00 90 1028.5
20260509141204 13 262 0.0 4.8 0.00 0.28 0.00 90 1028.5
20260509140204 13 262 1.6 4.8 0.00 0.28 0.00 90 1028.6
20260509135204 13 225 3.2 8.0 0.00 0.28 0.00 90 1028.5
20260509134704 13 232 0.0 3.2 0.00 0.28 0.00 90 1028.5
20260509133704 13 231 1.6 4.8 0.00 0.28 0.00 90 1028.6
20260509133205 13 250 1.6 3.2 0.00 0.28 0.00 90 1028.6
20260509132706 13 190 0.0 1.6 0.00 0.28 0.00 90 1028.6
20260509130705 13 190 0.0 1.6 0.00 0.28 0.00 89 1028.5
20260509125706 13 121 0.0 1.6 0.00 0.28 0.00 89 1028.5
20260509125205 13 141 0.0 3.2 0.00 0.28 0.00 89 1028.5
20260509122206 14 205 1.6 4.8 0.00 0.28 0.00 89 1028.7
20260509120705 14 144 1.6 3.2 0.00 0.28 0.00 88 1028.7
20260509120206 14 144 0.0 3.2 0.00 0.28 0.00 88 1028.6
20260509115706 14 189 1.6 4.8 0.00 0.28 0.00 88 1028.6
20260509113206 13 184 0.0 4.8 0.00 0.28 0.00 88 1028.5
20260509112205 13 211 0.0 4.8 0.00 0.28 0.00 88 1028.3
20260509110706 14 218 1.6 4.8 0.00 0.28 0.00 88 1028.2
20260509105705 14 223 3.2 4.8 0.00 0.28 0.00 88 1028.2
20260509104705 14 270 1.6 4.8 0.00 0.28 0.00 88 1028.2
20260509102706 14 144 0.0 1.6 0.00 0.28 0.00 88 1028.1
20260509101205 14 144 0.0 3.2 0.00 0.28 0.00 88 1028.2
20260509100705 14 144 0.0 0.0 0.00 0.28 0.00 88 1028.2
20260509100206 14 144 0.0 0.0 0.00 0.28 0.00 88 1028.3
20260509095205 14 144 0.0 0.0 0.00 0.28 0.00 88 1028.2
20260509094205 14 144 0.0 1.6 0.00 0.28 0.00 88 1028.1
20260509092207 14 211 1.6 3.2 0.00 0.28 0.00 87 1028.0
20260509091206 14 211 0.0 0.0 0.00 0.28 0.00 87 1028.0
20260509090205 14 211 0.0 3.2 0.00 0.28 0.00 87 1028.0
20260509084206 14 232 0.0 3.2 0.00 0.28 0.00 86 1027.9
20260509082705 14 269 0.0 3.2 0.00 0.30 0.00 85 1027.8
20260509082206 14 269 0.0 3.2 0.00 0.30 0.00 85 1027.7
20260509075705 15 269 3.2 4.8 0.00 0.30 0.00 85 1027.4
20260509074706 15 269 3.2 4.8 0.00 0.30 0.00 85 1027.3
20260509073206 15 212 4.8 8.0 0.00 0.30 0.00 84 1027.1
20260509072705 15 254 4.8 11.3 0.00 0.30 0.00 84 1027.1
20260509072206 15 241 4.8 8.0 0.00 0.30 0.00 85 1027.0
20260509070705 15 271 3.2 9.7 0.00 0.30 0.00 84 1027.0
20260509065205 15 252 3.2 11.3 0.00 0.30 0.00 84 1027.0
20260509063705 16 240 4.8 9.7 0.00 0.30 0.00 84 1026.9
20260509063205 16 230 4.8 12.9 0.00 0.30 0.00 83 1026.9
20260509062705 16 238 6.4 12.9 0.00 0.30 0.00 83 1026.8
20260509060706 16 248 8.0 14.5 0.00 0.30 0.00 81 1026.7
20260509055705 16 216 4.8 11.3 0.00 0.30 0.00 80 1026.7
20260509054704 16 229 3.2 11.3 0.00 0.30 0.00 79 1026.7
20260509052206 17 244 9.7 19.3 0.00 0.30 0.00 77 1026.5
20260509050205 17 226 4.8 12.9 0.00 0.30 0.00 77 1026.6
20260509045706 17 239 4.8 11.3 0.00 0.30 0.00 78 1026.5
20260509044705 17 258 4.8 12.9 0.00 0.30 0.00 77 1026.5
20260509042705 17 238 6.4 14.5 0.00 0.30 0.00 78 1026.7
20260509042206 18 214 4.8 11.3 0.00 0.30 0.00 79 1026.7
20260509041704 17 257 4.8 12.9 0.00 0.30 0.00 80 1026.7
20260509040205 16 292 4.8 9.7 0.00 0.30 0.00 82 1026.8
20260509034705 17 235 8.0 19.3 0.00 0.30 0.00 79 1026.6
20260509034207 17 237 9.7 19.3 0.00 0.30 0.00 78 1026.6
20260509033705 18 239 8.0 16.1 0.00 0.30 0.00 79 1026.7
20260509033205 17 206 8.0 16.1 0.00 0.30 0.00 80 1026.7
20260509032705 17 216 6.4 14.5 0.00 0.30 0.00 80 1026.8
20260509030704 18 223 8.0 16.1 0.00 0.30 0.00 77 1026.9
20260509024205 18 231 4.8 9.7 0.00 0.30 0.00 75 1027.0
20260509023204 17 243 4.8 9.7 0.00 0.30 0.00 76 1027.2
20260509021705 17 257 8.0 12.9 0.00 0.30 0.00 76 1027.3
20260509020704 18 252 3.2 11.3 0.00 0.30 0.00 77 1027.5
20260509015705 16 273 4.8 9.7 0.00 0.30 0.00 80 1027.5
20260509013705 17 166 4.8 9.7 0.00 0.30 0.00 82 1027.8
20260509012704 16 256 1.6 8.0 0.00 0.30 0.00 83 1027.8